GW4864 Weather Reports


time (UTC)temp
C
wind
direction
speed
KPH
gust
KPH
rain 1hr
cm
rain 24hr
cm
rain mn
cm
humidity
%
barometer
mb
20260510081539 8 0 0.0 0.0 0.00 0.00 0.00 93 1011.8
20260510080043 9 0 0.0 0.0 0.00 0.00 0.00 94 1011.6
20260510074545 9 0 0.0 1.6 0.00 0.00 0.00 93 1011.5
20260510073042 10 0 0.0 0.0 0.00 0.00 0.00 93 1011.4
20260510071554 10 0 0.0 0.0 0.00 0.00 0.00 93 1011.5
20260510070037 10 0 0.0 0.0 0.00 0.00 0.00 93 1011.6
20260510064544 10 0 0.0 0.0 0.00 0.00 0.00 92 1011.6
20260510063045 10 0 0.0 0.0 0.00 0.00 0.00 92 1011.6
20260510061548 11 0 0.0 0.0 0.00 0.00 0.00 92 1011.5
20260510060046 11 0 0.0 0.0 0.00 0.00 0.00 92 1011.4
20260510054548 11 0 0.0 0.0 0.00 0.00 0.00 92 1011.6
20260510053043 11 0 0.0 0.0 0.00 0.00 0.00 91 1011.4
20260510051543 11 0 0.0 0.0 0.00 0.00 0.00 91 1011.3
20260510050038 12 12 0.0 1.6 0.00 0.00 0.00 90 1011.4
20260510044546 12 0 0.0 0.0 0.00 0.00 0.00 89 1011.2
20260510043047 12 0 0.0 1.6 0.00 0.00 0.00 88 1011.3
20260510041543 12 0 0.0 1.6 0.00 0.00 0.00 87 1011.3
20260510040042 13 0 0.0 1.6 0.00 0.00 0.00 86 1011.2
20260510034541 13 0 0.0 0.0 0.00 0.00 0.00 85 1011.1
20260510033059 13 0 0.0 0.0 0.00 0.00 0.00 83 1011.0
20260510031549 14 0 0.0 0.0 0.00 0.00 0.00 82 1010.8
20260510030044 15 0 0.0 1.6 0.00 0.00 0.00 80 1010.7
20260510024544 15 0 0.0 0.0 0.00 0.00 0.00 80 1010.7
20260510023044 15 0 0.0 0.0 0.00 0.00 0.00 79 1010.5
20260510021603 14 0 0.0 0.0 0.00 0.00 0.00 80 1010.1
20260510020045 14 0 0.0 0.0 0.00 0.00 0.00 81 1010.0
20260510014543 14 0 0.0 0.0 0.00 0.00 0.00 80 1009.6
20260510013051 15 0 0.0 1.6 0.00 0.00 0.00 79 1009.4
20260510011551 15 0 0.0 0.0 0.00 0.00 0.00 78 1009.4
20260510010043 15 0 0.0 0.0 0.00 0.00 0.00 75 1009.2
20260510004548 16 0 0.0 0.0 0.00 0.00 0.00 74 1008.9
20260510003103 16 0 0.0 0.0 0.00 0.00 0.00 72 1008.9
20260510001545 17 0 0.0 0.0 0.00 0.00 0.00 69 1008.8
20260510000046 18 0 0.0 0.0 0.00 0.00 0.00 66 1008.7
20260509234557 19 0 0.0 1.6 0.00 0.00 0.00 63 1008.6
20260509233042 20 0 0.0 1.6 0.00 0.00 0.00 59 1008.3
20260509231552 21 355 0.0 4.8 0.00 0.00 0.00 58 1008.3
20260509230059 22 336 1.6 6.4 0.00 0.00 0.00 54 1008.3
20260509224543 22 317 0.0 6.4 0.00 0.00 0.00 52 1008.3
20260509223044 23 0 1.6 11.3 0.00 0.00 0.00 49 1008.5
20260509221543 23 317 1.6 9.7 0.00 0.00 0.00 46 1008.5
20260509220043 23 298 1.6 4.8 0.00 0.00 0.00 50 1008.5
20260509214542 22 308 1.6 8.0 0.00 0.00 0.00 50 1008.3
20260509213055 23 319 3.2 14.5 0.00 0.00 0.00 46 1008.3
20260509211543 25 241 1.6 9.7 0.00 0.00 0.00 47 1008.2
20260509210050 25 344 3.2 12.9 0.00 0.00 0.00 44 1008.2
20260509204543 25 325 0.0 16.1 0.00 0.00 0.00 43 1008.0
20260509203047 25 12 3.2 9.7 0.00 0.00 0.00 44 1008.1
20260509201540 25 355 3.2 14.5 0.00 0.00 0.00 45 1008.0
20260509200047 23 324 3.2 12.9 0.00 0.00 0.00 48 1008.0
20260509194543 23 0 3.2 14.5 0.00 0.00 0.00 48 1008.2
20260509193043 24 327 3.2 16.1 0.00 0.00 0.00 47 1008.4
20260509191539 24 51 3.2 16.1 0.00 0.00 0.00 46 1008.5
20260509190042 23 321 4.8 9.7 0.00 0.00 0.00 49 1008.7
20260509184545 23 340 1.6 8.0 0.00 0.00 0.00 54 1009.0
20260509183107 24 259 1.6 14.5 0.00 0.00 0.00 53 1009.4
20260509181600 23 315 4.8 16.1 0.00 0.00 0.00 52 1009.7
20260509180043 22 283 3.2 14.5 0.00 0.00 0.00 54 1009.6
20260509174541 22 315 3.2 14.5 0.00 0.00 0.00 57 1009.7
20260509173044 22 300 3.2 11.3 0.00 0.00 0.00 57 1009.8
20260509171544 22 264 4.8 19.3 0.00 0.00 0.00 56 1010.0
20260509170051 22 286 3.2 12.9 0.00 0.00 0.00 57 1010.0
20260509164546 22 282 4.8 12.9 0.00 0.00 0.00 54 1009.9
20260509163037 21 0 3.2 12.9 0.00 0.00 0.00 61 1010.3
20260509161544 20 326 1.6 8.0 0.00 0.00 0.00 62 1010.6
20260509160048 20 292 1.6 17.7 0.00 0.00 0.00 58 1010.7
20260509154551 21 291 3.2 20.9 0.00 0.00 0.00 59 1010.5
20260509153052 20 338 3.2 12.9 0.00 0.00 0.00 60 1010.8
20260509151546 18 339 1.6 9.7 0.00 0.00 0.00 64 1011.1
20260509150044 17 149 3.2 9.7 0.00 0.00 0.00 67 1011.3
20260509144542 17 44 3.2 9.7 0.00 0.00 0.00 68 1011.3
20260509143044 16 105 4.8 12.9 0.00 0.00 0.00 68 1011.3
20260509141542 15 101 3.2 11.3 0.00 0.00 0.00 69 1011.7
20260509140046 15 317 1.6 6.4 0.00 0.00 0.00 72 1012.0
20260509134541 14 0 0.0 6.4 0.00 0.00 0.00 73 1011.9
20260509133045 13 0 1.6 3.2 0.00 0.00 0.00 73 1012.1
20260509131543 12 13 0.0 3.2 0.00 0.00 0.00 75 1012.0
20260509130042 12 336 1.6 4.8 0.00 0.00 0.00 76 1012.2
20260509124541 12 323 1.6 6.4 0.00 0.00 0.00 76 1012.3
20260509123037 11 0 0.0 4.8 0.00 0.00 0.00 78 1012.3
20260509121542 11 0 0.0 4.8 0.00 0.00 0.00 77 1012.2
20260509120051 11 0 0.0 3.2 0.00 0.00 0.00 79 1012.3
20260509114542 10 0 0.0 0.0 0.00 0.00 0.00 81 1012.3
20260509113038 9 0 0.0 1.6 0.00 0.00 0.00 83 1012.2
20260509111551 8 0 0.0 1.6 0.00 0.00 0.00 83 1012.0
20260509110043 8 0 0.0 1.6 0.00 0.00 0.00 82 1012.2
20260509104545 8 0 0.0 0.0 0.00 0.00 0.00 82 1011.9
20260509103047 7 0 0.0 1.6 0.00 0.00 0.00 83 1012.1
20260509101552 8 0 0.0 1.6 0.00 0.00 0.00 81 1011.9
20260509100039 8 0 0.0 4.8 0.00 0.00 0.00 81 1011.8
20260509094546 7 0 0.0 1.6 0.00 0.00 0.00 83 1011.7
20260509093056 7 0 0.0 1.6 0.00 0.00 0.00 82 1011.9
20260509091544 7 0 0.0 0.0 0.00 0.00 0.00 82 1012.1
20260509090039 7 0 0.0 0.0 0.00 0.00 0.00 82 1012.1
20260509084554 7 0 0.0 1.6 0.00 0.00 0.00 81 1012.1
20260509083048 7 0 0.0 1.6 0.00 0.00 0.00 81 1012.2